Location: Pinawa
(50.1500°N, 95.8830°W)
Time: 13:09:01
(UTC-05:00)

Amateur Radio Satellites - All Passes

Search period start: 21 September 2014 12:39
Search period end: 22 September 2014 12:39
Location: Pinawa, 50.1500°N, 95.8830°W

Satellite Date Start Highest point End Downlink Frequencies (MHz)
Time Altitude Azimuth
HO-68 21 Sep 12:39:21 12:45:09 27° 308° (NW) 12:50:56 435.675 MHz FM
RS-15 21 Sep 12:44:32 12:55:37 75° 45° (NE) 13:07:05 29.354 - 29.394 USB, Beacon 29.352 USB
ITAMSAT 1 21 Sep 12:46:12 12:48:47 14° 51° (NE) 12:51:23 435.822 SSB
Uribyol 2 21 Sep 12:49:26 12:52:24 16° 53° (NE) 12:55:22 436.500 FM
Oscar 19 21 Sep 12:56:21 13:00:52 31° 62° (ENE) 13:05:24 437.125 CW, 437.150 USB
Sapphire 21 Sep 13:04:19 13:09:42 73° 122° (ESE) 13:15:08 437.095 MHz 1200 baud AX-25 AFSK
FUNcube-1 21 Sep 13:08:24 13:12:12 25° 297° (WNW) 13:15:58 145.950 - 145.970 MHz USB
Oscar 11 21 Sep 13:15:14 13:16:35 11° 306° (NW) 13:17:56 145.825 FM, Beacon 2401.500 USB
AO-27 21 Sep 13:19:48 13:23:54 25° 59° (ENE) 13:28:01 436.795 MHz FM
TMSAT-1 21 Sep 13:22:40 13:24:20 11° 48° (NE) 13:25:59 436.925 FM
PCSat 21 Sep 13:31:10 13:36:34 72° 309° (NW) 13:42:02 145.825 MHz
AO-Echo 21 Sep 13:33:05 13:37:08 30° 63° (ENE) 13:41:12 ?
Oscar 16 21 Sep 13:34:44 13:39:51 62° 70° (ENE) 13:45:01 437.025 USB, Beacon 2401.1428
AO-7 21 Sep 13:39:02 13:43:34 16° 33° (NNE) 13:48:06 29.400 - 29.500 MHz
JAS-1B 21 Sep 13:48:45 13:56:36 56° 67° (ENE) 14:03:11 435.800 - 435.900 CW/SSB
ITAMSAT 1 21 Sep 14:22:16 14:27:24 71° 71° (ENE) 14:32:35 435.822 SSB
Gurwin Techsat 1B 21 Sep 14:22:39 14:27:32 39° 65° (ENE) 14:32:26 435.225 FM
Uribyol 2 21 Sep 14:25:55 14:31:05 79° 72° (ENE) 14:36:19 436.500 FM
Oscar 19 21 Sep 14:35:04 14:40:03 46° 261° (W) 14:45:05 437.125 CW, 437.150 USB
Uosat F 21 Sep 14:47:52 14:49:35 12° 50° (NE) 14:51:17 435.120 FM
Sapphire 21 Sep 14:48:57 14:53:39 29° 324° (NW) 14:58:24 437.095 MHz 1200 baud AX-25 AFSK
RS-15 21 Sep 14:57:20 15:07:20 41° 250° (WSW) 15:17:41 29.354 - 29.394 USB, Beacon 29.352 USB
AO-27 21 Sep 14:57:56 15:03:03 61° 258° (WSW) 15:08:13 436.795 MHz FM
TMSAT-1 21 Sep 14:58:01 15:03:10 55° 69° (ENE) 15:08:21 436.925 FM
AO-Echo 21 Sep 15:11:24 15:15:50 40° 262° (W) 15:20:16 ?
Oscar 16 21 Sep 15:15:39 15:19:38 22° 269° (W) 15:23:40 437.025 USB, Beacon 2401.1428
PCSat 21 Sep 15:16:46 15:20:57 22° 331° (NNW) 15:25:09 145.825 MHz
AO-7 21 Sep 15:26:38 15:34:24 46° 57° (ENE) 15:42:09 29.400 - 29.500 MHz
JAS-1B 21 Sep 15:39:58 15:47:25 37° 264° (W) 15:53:49 435.800 - 435.900 CW/SSB
Gurwin Techsat 1B 21 Sep 16:02:39 16:07:32 37° 264° (W) 16:12:27 435.225 FM
ITAMSAT 1 21 Sep 16:03:48 16:07:27 19° 270° (W) 16:11:07 435.822 SSB
Uribyol 2 21 Sep 16:07:53 16:11:12 17° 272° (W) 16:14:33 436.500 FM
Uosat F 21 Sep 16:22:30 16:27:24 60° 70° (ENE) 16:32:21 435.120 FM
Sapphire 21 Sep 16:36:04 16:38:55 14° 349° (N) 16:41:47 437.095 MHz 1200 baud AX-25 AFSK
TMSAT-1 21 Sep 16:39:06 16:43:26 25° 268° (W) 16:47:47 436.925 FM
MaSat-1 21 Sep 16:53:35 16:57:19 32° 47° (NE) 17:00:33 437.345 MHz
PCSat 21 Sep 17:03:55 17:06:28 13° 357° (N) 17:09:02 145.825 MHz
AO-7 21 Sep 17:19:03 17:27:07 54° 258° (WSW) 17:35:14 29.400 - 29.500 MHz
OPAL 21 Sep 17:27:18 17:31:26 24° 94° (E) 17:35:30 ?
Saudisat 1A 21 Sep 17:32:56 17:37:06 44° 122° (ESE) 17:41:19 436.775 MHz
JAS-2 21 Sep 17:35:07 17:40:00 44° 66° (ENE) 17:45:00 435.800 - 435.900 CW/SSB, 435.910 FM
Hamsat 21 Sep 17:43:37 17:47:42 41° 69° (ENE) 17:51:48 145.90 MHz
Uosat F 21 Sep 18:02:48 18:06:36 22° 269° (W) 18:10:25 435.120 FM
KITSAT 1 21 Sep 18:16:35 18:21:14 17° 100° (E) 18:25:52 435.175 FM
Sapphire 21 Sep 18:21:28 18:24:41 16° 16° (NNE) 18:27:54 437.095 MHz 1200 baud AX-25 AFSK
MaSat-1 21 Sep 18:30:34 18:33:55 28° 251° (WSW) 18:36:52 437.345 MHz
PCSat 21 Sep 18:48:19 18:52:08 19° 24° (NNE) 18:55:56 145.825 MHz
OPAL 21 Sep 19:05:35 19:10:42 58° 293° (WNW) 19:15:42 ?
Saudisat 1A 21 Sep 19:12:43 19:16:48 35° 323° (NW) 19:20:54 436.775 MHz
SO-67 21 Sep 19:18:07 19:21:30 55° 73° (ENE) 19:24:54 435.3500 MHz FM
AO-7 21 Sep 19:19:48 19:21:58 11° 280° (W) 19:24:08 29.400 - 29.500 MHz
Hamsat 21 Sep 19:20:12 19:23:49 25° 267° (W) 19:27:26 145.90 MHz
JAS-2 21 Sep 19:20:56 19:25:24 29° 267° (W) 19:29:55 435.800 - 435.900 CW/SSB, 435.910 FM
HO-68 21 Sep 19:38:23 19:44:03 27° 51° (NE) 19:49:44 435.675 MHz FM
STRAND 1 21 Sep 19:50:00 19:54:49 39° 97° (E) 19:59:36 ?
Sapphire 21 Sep 20:04:40 20:09:43 37° 41° (NE) 20:14:44 437.095 MHz 1200 baud AX-25 AFSK
KITSAT 1 21 Sep 20:07:10 20:15:09 68° 121° (ESE) 20:23:11 435.175 FM
PCSat 21 Sep 20:31:24 20:36:46 55° 47° (NE) 20:42:05 145.825 MHz
OPAL 21 Sep 20:46:26 20:48:34 13° 314° (NW) 20:50:40 ?
SO-67 21 Sep 20:53:21 20:54:52 12° 271° (W) 20:56:24 435.3500 MHz FM
Saudisat 1A 21 Sep 20:55:06 20:57:37 15° 346° (NNW) 21:00:08 436.775 MHz
FUNcube-1 21 Sep 20:59:53 21:01:07 11° 53° (NE) 21:02:21 145.950 - 145.970 MHz USB
Oscar 11 21 Sep 21:01:19 21:04:38 22° 61° (ENE) 21:07:58 145.825 FM, Beacon 2401.500 USB
UKube-1 21 Sep 21:19:28 21:23:32 41° 67° (ENE) 21:27:37 145.840 MHz, 145.915 MHz
HO-68 21 Sep 21:23:52 21:31:02 85° 252° (WSW) 21:38:15 435.675 MHz FM
STRAND 1 21 Sep 21:29:20 21:33:58 35° 296° (WNW) 21:38:36 ?
Sapphire 21 Sep 21:48:05 21:53:22 52° 242° (WSW) 21:58:36 437.095 MHz 1200 baud AX-25 AFSK
SO-50 21 Sep 21:56:06 21:59:20 20° 113° (ESE) 22:02:38 436.795 FM
KITSAT 1 21 Sep 22:03:23 22:11:04 44° 325° (NW) 22:18:46 435.175 FM
PCSat 21 Sep 22:15:13 22:19:58 31° 248° (WSW) 22:24:41 145.825 MHz
FUNcube-1 21 Sep 22:32:11 22:36:36 65° 72° (ENE) 22:41:10 145.950 - 145.970 MHz USB
Oscar 11 21 Sep 22:36:15 22:40:31 52° 260° (W) 22:44:49 145.825 FM, Beacon 2401.500 USB
AO-40 21 Sep 22:36:28 01:46:29 23° 135° (SE) 03:09:20 Beacon 2401.320
Saudisat 1A 21 Sep 22:36:41 22:38:58 14° 11° (N) 22:41:16 436.775 MHz
UKube-1 21 Sep 22:56:18 22:59:53 25° 266° (W) 23:03:30 145.840 MHz, 145.915 MHz
HO-68 21 Sep 23:14:54 23:19:47 19° 273° (W) 23:24:42 435.675 MHz FM
UOSAT-12 21 Sep 23:21:57 23:24:13 14° 109° (ESE) 23:26:29 437.025 FM, 437.400 FM
SO-50 21 Sep 23:34:53 23:39:24 71° 313° (NW) 23:44:04 436.795 FM
KITSAT 1 22 Sep 00:02:08 00:08:43 26° 353° (N) 00:15:19 435.175 FM
Oscar 10/S400 22 Sep 00:03:40 00:47:18 42° 202° (SSW) 06:50:56 145.825 - 145.975 CW/USB, Beacon 145.810 USB
FUNcube-1 22 Sep 00:10:33 00:13:29 17° 272° (W) 00:16:28 145.950 - 145.970 MHz USB
Saudisat 1A 22 Sep 00:15:59 00:19:55 30° 34° (NE) 00:23:49 436.775 MHz
UOSAT-12 22 Sep 00:58:56 01:03:36 80° 128° (SE) 01:08:21 437.025 FM, 437.400 FM
SO-50 22 Sep 01:17:14 01:20:46 21° 336° (NNW) 01:24:23 436.795 FM
Oscar 16 22 Sep 01:43:05 01:46:05 15° 87° (E) 01:49:05 437.025 USB, Beacon 2401.1428
Saudisat 1A 22 Sep 01:55:25 01:59:47 58° 235° (SW) 02:04:06 436.775 MHz
KITSAT 1 22 Sep 01:59:41 02:06:49 32° 23° (NNE) 02:13:55 435.175 FM
ISS 22 Sep 02:13:28 02:15:18 14° 138° (SE) 02:17:07 145.800 FM
ITAMSAT 1 22 Sep 02:31:26 02:34:55 18° 89° (E) 02:38:23 435.822 SSB
Uribyol 2 22 Sep 02:34:45 02:38:34 20° 90° (E) 02:42:21 436.500 FM
UOSAT-12 22 Sep 02:40:18 02:44:17 27° 330° (NNW) 02:48:19 437.025 FM, 437.400 FM
Oscar 19 22 Sep 02:41:44 02:46:43 45° 98° (E) 02:51:37 437.125 CW, 437.150 USB
SO-50 22 Sep 03:00:33 03:03:03 14° 0° (N) 03:05:34 436.795 FM
AO-27 22 Sep 03:06:19 03:11:05 34° 96° (E) 03:15:48 436.795 MHz FM
TMSAT-1 22 Sep 03:10:22 03:13:26 15° 87° (E) 03:16:29 436.925 FM
OPAL 22 Sep 03:10:35 03:13:23 15° 49° (NE) 03:16:12 ?
AO-Echo 22 Sep 03:13:05 03:17:44 44° 99° (E) 03:22:29 ?
RS-15 22 Sep 03:17:01 03:25:07 25° 101° (ESE) 03:33:08 29.354 - 29.394 USB, Beacon 29.352 USB
JAS-1B 22 Sep 03:19:09 03:24:45 48° 99° (E) 03:30:15 435.800 - 435.900 CW/SSB
Oscar 16 22 Sep 03:20:56 03:26:10 86° 286° (WNW) 03:31:20 437.025 USB, Beacon 2401.1428
ISS 22 Sep 03:48:12 03:51:29 58° 156° (SSE) 03:54:46 145.800 FM
KITSAT 1 22 Sep 03:55:28 04:03:36 75° 49° (NE) 04:11:40 435.175 FM
ITAMSAT 1 22 Sep 04:09:47 04:15:01 77° 288° (WNW) 04:20:14 435.822 SSB
Uribyol 2 22 Sep 04:13:20 04:18:33 69° 289° (WNW) 04:23:44 436.500 FM
Gurwin Techsat 1B 22 Sep 04:13:26 04:18:45 64° 102° (ESE) 04:24:00 435.225 FM
Oscar 19 22 Sep 04:21:23 04:25:55 31° 298° (WNW) 04:30:24 437.125 CW, 437.150 USB
UOSAT-12 22 Sep 04:23:21 04:25:59 15° 354° (N) 04:28:38 437.025 FM, 437.400 FM
Uosat F 22 Sep 04:27:18 04:29:31 13° 86° (E) 04:31:44 435.120 FM
SO-50 22 Sep 04:41:37 04:45:18 22° 25° (NNE) 04:49:02 436.795 FM
AO-27 22 Sep 04:45:48 04:50:40 41° 295° (WNW) 04:55:31 436.795 MHz FM
OPAL 22 Sep 04:46:13 04:51:24 70° 69° (ENE) 04:56:37 ?
TMSAT-1 22 Sep 04:48:45 04:54:06 89° 286° (WNW) 04:59:25 436.925 FM
AO-Echo 22 Sep 04:52:14 04:56:23 29° 297° (WNW) 05:00:37 ?
Oscar 16 22 Sep 05:01:36 05:04:48 17° 306° (NW) 05:08:00 437.025 USB, Beacon 2401.1428
JAS-1B 22 Sep 05:10:17 05:15:18 31° 301° (WNW) 05:20:10 435.800 - 435.900 CW/SSB
AO-7 22 Sep 05:14:58 05:22:44 42° 98° (E) 05:30:28 29.400 - 29.500 MHz
RS-15 22 Sep 05:24:45 05:35:44 81° 126° (SE) 05:46:42 29.354 - 29.394 USB, Beacon 29.352 USB
ISS 22 Sep 05:24:53 05:28:13 66° 356° (N) 05:31:32 145.800 FM
STRAND 1 22 Sep 05:33:59 05:37:07 17° 54° (NE) 05:40:17 ?
ITAMSAT 1 22 Sep 05:50:47 05:53:43 15° 308° (NW) 05:56:38 435.822 SSB
KITSAT 1 22 Sep 05:51:27 05:58:25 33° 251° (WSW) 06:05:21 435.175 FM
Gurwin Techsat 1B 22 Sep 05:54:07 05:58:19 24° 301° (WNW) 06:02:30 435.225 FM
Uribyol 2 22 Sep 05:54:34 05:57:08 14° 309° (NW) 05:59:42 436.500 FM
Uosat F 22 Sep 06:04:02 06:09:06 83° 105° (ESE) 06:14:09 435.120 FM
UOSAT-12 22 Sep 06:04:38 06:07:56 18° 19° (NNE) 06:11:13 437.025 FM, 437.400 FM
SO-50 22 Sep 06:21:53 06:26:40 71° 47° (NE) 06:31:31 436.795 FM
JAS-2 22 Sep 06:22:18 06:27:32 29° 94° (E) 06:33:18 435.800 - 435.900 CW/SSB, 435.910 FM
OPAL 22 Sep 06:26:59 06:30:47 20° 268° (W) 06:34:36 ?
TMSAT-1 22 Sep 06:29:54 06:33:20 18° 306° (NW) 06:36:46 436.925 FM
Hamsat 22 Sep 07:00:27 07:04:32 43° 98° (E) 07:08:33 145.90 MHz
ISS 22 Sep 07:01:42 07:05:03 90° 7° (N) 07:08:24 145.800 FM
AO-7 22 Sep 07:07:47 07:15:49 57° 299° (WNW) 07:23:50 29.400 - 29.500 MHz
STRAND 1 22 Sep 07:10:32 07:15:37 88° 74° (ENE) 07:20:46 ?
RS-15 22 Sep 07:38:40 07:49:08 48° 334° (NNW) 07:59:43 29.354 - 29.394 USB, Beacon 29.352 USB
Uosat F 22 Sep 07:43:57 07:47:18 18° 305° (NW) 07:50:39 435.120 FM
UOSAT-12 22 Sep 07:44:32 07:49:10 49° 41° (NE) 07:53:44 437.025 FM, 437.400 FM
SO-50 22 Sep 08:03:11 08:06:50 22° 246° (WSW) 08:10:31 436.795 FM
JAS-2 22 Sep 08:07:05 08:12:55 60° 291° (WNW) 08:19:30 435.800 - 435.900 CW/SSB, 435.910 FM
SO-67 22 Sep 08:10:11 08:13:23 34° 97° (E) 08:16:34 435.3500 MHz FM
MaSat-1 22 Sep 08:18:59 08:23:38 40° 113° (ESE) 08:28:07 437.345 MHz
Hamsat 22 Sep 08:36:52 08:40:17 24° 297° (WNW) 08:43:40 145.90 MHz
ISS 22 Sep 08:38:40 08:41:30 26° 215° (SW) 08:44:21 145.800 FM
HO-68 22 Sep 08:48:30 08:52:05 14° 83° (E) 08:55:38 435.675 MHz FM
STRAND 1 22 Sep 08:52:43 08:55:33 15° 273° (W) 08:58:23 ?
AO-7 22 Sep 09:01:40 09:06:59 19° 323° (NW) 09:12:17 29.400 - 29.500 MHz
UOSAT-12 22 Sep 09:24:59 09:29:12 32° 242° (WSW) 09:33:21 437.025 FM, 437.400 FM
SO-67 22 Sep 09:43:39 09:46:14 20° 295° (WNW) 09:48:49 435.3500 MHz FM
JAS-2 22 Sep 09:54:12 09:57:03 14° 310° (NW) 10:00:01 435.800 - 435.900 CW/SSB, 435.910 FM
RS-15 22 Sep 09:54:32 10:04:35 39° 8° (N) 10:14:51 29.354 - 29.394 USB, Beacon 29.352 USB
MaSat-1 22 Sep 09:55:44 10:00:24 39° 311° (NW) 10:04:50 437.345 MHz
Oscar 11 22 Sep 10:19:46 10:23:06 21° 92° (E) 10:26:24 145.825 FM, Beacon 2401.500 USB
FUNcube-1 22 Sep 10:19:54 10:20:23 10° 84° (E) 10:20:52 145.950 - 145.970 MHz USB
HO-68 22 Sep 10:34:00 10:41:11 67° 104° (ESE) 10:48:19 435.675 MHz FM
UKube-1 22 Sep 10:38:58 10:43:05 39° 98° (E) 10:47:10 145.840 MHz, 145.915 MHz
PCSat 22 Sep 11:19:53 11:23:18 17° 105° (ESE) 11:26:44 145.825 MHz
MaSat-1 22 Sep 11:36:35 11:38:19 12° 331° (NNW) 11:40:00 437.345 MHz
FUNcube-1 22 Sep 11:52:57 11:57:37 75° 103° (ESE) 12:02:11 145.950 - 145.970 MHz USB
Oscar 11 22 Sep 11:55:21 11:59:34 48° 290° (WNW) 12:03:44 145.825 FM, Beacon 2401.500 USB
RS-15 22 Sep 12:08:25 12:19:23 64° 39° (NE) 12:30:43 29.354 - 29.394 USB, Beacon 29.352 USB
UKube-1 22 Sep 12:15:27 12:19:09 27° 297° (WNW) 12:22:51 145.840 MHz, 145.915 MHz
JAS-1B 22 Sep 12:21:02 12:25:48 19° 51° (NE) 12:30:08 435.800 - 435.900 CW/SSB
HO-68 22 Sep 12:22:15 12:28:28 33° 305° (NW) 12:34:41 435.675 MHz FM
Oscar 19 22 Sep 12:26:05 12:29:39 19° 56° (NE) 12:33:13 437.125 CW, 437.150 USB
